Weather in Cucuta

Colombia     7°53′40″N   72°30′16″W
temp.,
°C
wind,
m/s
gust,
m/s
humid.,
%
clouds,
%
prec.,
mm/h
press.,
hPa
HPBL,
m
21 june, mon
mon2101:00+22s2472100 0.1 1013124
04:00+21s2471100 0.0 101393
07:00+25s2557100 0.0 1014272
10:00+33se483180 0.0 10132127
13:00+34se473140 0.0 10101965
16:00+33ne334084 0.0 10091967
19:00+24s1173100 0.3 101230
22:00+21s238449 0.7 101469
22 june, tue
tue2201:00+21s1278100 0.7 101345
04:00+22s2377100 0.1 101398
07:00+22s2480100 0.4 1014168
10:00+30sse254281 0.0 10141427
13:00+35se3531100 0.0 10102327
16:00+33ene2338100 0.0 10091923
19:00+23sse228196 1.4 101232
22:00+21s2284100 0.8 101459
23 june, wed
wed2301:00+21s1182100 1.0 101335
04:00+20s1181100 0.0 101330
07:00+24s236461 0.0 1014213
10:00+33nne0336100 0.0 10131725
13:00+33nne343738 0.0 10102072
16:00+31ne224636 0.1 10091475
19:00+25se116849 1.0 101137
22:00+22s238598 1.8 101385
24 june, thu
thu2401:00+21se018730 2.1 101222
04:00+21sse0189100 0.6 101320
07:00+23ssw137627 0.8 1013221
10:00+31nnw234198 0.0 10121392
13:00+31nne435287 0.4 10091393
16:00+30ne335749 1.1 10081138
19:00+23ese117985 2.1 101074
22:00+22sse2282100 0.7 101353
25 june, fri
fri2501:00+21s118397 0.8 101227
04:00+21s118294 0.0 101222
07:00+23ssw126696 0.0 1013236
10:00+32nnw133836 0.0 10111516
13:00+34nne453618 0.0 10082188
16:00+31nne334964 0.1 10061122
19:00+24se118296 2.1 101074
22:00+22s2385100 0.1 101274